Weather History for Bolton Field, OH

Change the Weather History Date:

Monday, February 10, 2014

  Actual Average Record
Temperature  
Mean Temperature 10 °F -  
Max Temperature 19 °F 39 °F 55 °F (1999)
Min Temperature 2 °F 26 °F -5 °F (2011)
Degree Days  
Heating Degree Days 55    
Moisture  
Dew Point 4 °F    
Average Humidity 81    
Maximum Humidity 92    
Minimum Humidity 58    
Precipitation  
Precipitation 0.00 in - - ()
Sea Level Pressure  
Sea Level Pressure 30.29 in    
Wind  
Wind Speed 4 mph (WNW)    
Max Wind Speed 6 mph    
Max Gust Speed -    
Visibility 8 miles    
Events      
Averages and records for this station are not official NWS values.
T = Trace of Precipitation, MM = Missing Value Source: NWS Daily Summary

Daily Weather History Graph

Daily Weather History Graph

Search for Another Location

Airport:

Trip Planner

Search our weather history database for the weather conditions in past years. The results will help you decide how hot, cold, wet, or windy it might be!

Date:

Astronomy

Feb. 10, 2014 Rise Set
Actual Time 7:31 AM EST 6:02 PM EST
Civil Twilight 7:03 AM EST 6:30 PM EST
Nautical Twilight 6:31 AM EST 7:02 PM EST
Astronomical Twilight 6:00 AM EST 7:34 PM EST
Moon 2:31 PM EST (2/10) 4:23 AM EST (2/10)
Length of Visible Light 11h 27m
Length of Day
10h 31m
Waxing Gibbous, 84% of the Moon is Illuminated
Feb 10
Waxing Gibbous
Feb 14
Full
Feb 22
Last Quarter
Mar 1
New
Mar 8
First Quarter

Hourly Weather History & Observations

Time (EST) Temp. Windchill Dew Point Humidity Pressure Visibility Wind Dir Wind Speed Gust Speed Precip Events Conditions
12:15 AM 14.0 °F - 9.5 °F 82% 30.21 in 10.0 mi North - - N/A   Clear
12:35 AM 13.8 °F - 9.5 °F 83% 30.20 in 10.0 mi North - - N/A   Clear
12:55 AM 13.3 °F - 9.1 °F 84% 30.21 in 10.0 mi North - - N/A   Clear
1:15 AM 13.1 °F - 9.1 °F 84% 30.20 in 10.0 mi North - - N/A   Clear
1:35 AM 12.0 °F - 8.4 °F 85% 30.20 in 10.0 mi North - - N/A   Clear
1:55 AM 9.1 °F 2.6 °F 6.3 °F 88% 30.21 in 7.0 mi WSW 3.5 mph - N/A   Clear
2:15 AM 9.7 °F 3.2 °F 7.3 °F 90% 30.22 in 7.0 mi West 3.5 mph - N/A   Clear
2:35 AM 10.2 °F 3.8 °F 7.7 °F 90% 30.22 in 7.0 mi WSW 3.5 mph - N/A   Clear
2:55 AM 6.1 °F -2.8 °F 3.4 °F 89% 30.22 in 4.0 mi WSW 4.6 mph - N/A   Clear
3:15 AM 7.7 °F - 5.4 °F 90% 30.22 in 5.0 mi Calm Calm - N/A   Clear
3:35 AM 8.2 °F 1.6 °F 5.9 °F 90% 30.22 in 5.0 mi West 3.5 mph - N/A   Clear
3:55 AM 7.5 °F - 4.8 °F 89% 30.21 in 5.0 mi North - - N/A   Clear
4:15 AM 7.3 °F - 4.6 °F 89% 30.21 in 5.0 mi North - - N/A   Clear
4:35 AM 7.2 °F - 4.3 °F 88% 30.21 in 5.0 mi North - - N/A   Clear
4:55 AM 7.2 °F - 4.1 °F 87% 30.22 in 5.0 mi North - - N/A   Clear
5:15 AM 6.4 °F - 3.7 °F 89% 30.23 in 7.0 mi North - - N/A   Clear
5:35 AM 5.7 °F - 2.8 °F 88% 30.24 in 5.0 mi North - - N/A   Clear
5:55 AM 5.7 °F - 3.0 °F 89% 30.24 in 5.0 mi North - - N/A   Clear
6:15 AM 4.3 °F - 1.0 °F 86% 30.25 in 5.0 mi North - - N/A   Clear
7:20 AM 3.2 °F -7.8 °F -0.4 °F 85% 30.26 in 5.0 mi WNW 5.8 mph - N/A   Clear
7:50 AM 3.2 °F -7.8 °F -0.4 °F 85% 30.26 in 5.0 mi WNW 5.8 mph - N/A   Clear
8:50 AM 3.2 °F -4.2 °F 1.4 °F 92% 30.29 in 5.0 mi WNW 3.5 mph - N/A   Clear
9:50 AM 5.0 °F -2.1 °F 1.4 °F 85% 30.31 in 5.0 mi West 3.5 mph - N/A   Scattered Clouds
10:20 AM 8.6 °F 2.0 °F 5.0 °F 85% 30.32 in 7.0 mi West 3.5 mph - N/A   Overcast
10:50 AM 8.6 °F 2.0 °F 6.8 °F 92% 30.33 in 7.0 mi WSW 3.5 mph - N/A   Mostly Cloudy
11:50 AM 12.2 °F 6.1 °F 6.8 °F 79% 30.32 in 7.0 mi NNW 3.5 mph - N/A   Clear
12:50 PM 15.8 °F 7.2 °F 6.8 °F 68% 30.31 in 7.0 mi WNW 5.8 mph - N/A   Clear
1:50 PM 17.6 °F 9.3 °F 8.6 °F 68% 30.29 in 10.0 mi NW 5.8 mph - N/A   Clear
2:50 PM 17.6 °F 10.7 °F 12.2 °F 79% 30.29 in 10.0 mi WNW 4.6 mph - N/A   Clear
2:52 PM 17.6 °F 10.7 °F 12.2 °F 79% 30.29 in 10.0 mi WNW 4.6 mph - N/A   Clear
3:55 PM 17.6 °F 12.3 °F 6.8 °F 63% 30.30 in 10.0 mi NW 3.5 mph - N/A   Mostly Cloudy
4:50 PM 17.6 °F - 5.0 °F 58% 30.30 in 10.0 mi Calm Calm - N/A   Scattered Clouds
5:50 PM 15.8 °F - 5.0 °F 62% 30.32 in 10.0 mi Calm Calm - N/A   Clear
6:35 PM 13.5 °F 5.8 °F 4.5 °F 67% 30.32 in 10.0 mi NW 4.6 mph - N/A   Clear
6:50 PM 12.2 °F - 3.2 °F 67% 30.33 in 10.0 mi Calm Calm - N/A   Clear
6:55 PM 12.9 °F 5.2 °F 3.9 °F 67% 30.33 in 10.0 mi WNW 4.6 mph - N/A   Clear
7:15 PM 11.3 °F 1.9 °F 3.0 °F 69% 30.33 in 10.0 mi WNW 5.8 mph - N/A   Clear
7:35 PM 11.3 °F 3.3 °F 3.7 °F 72% 30.34 in 10.0 mi WNW 4.6 mph - N/A   Clear
7:55 PM 10.4 °F 2.2 °F 3.2 °F 73% 30.35 in 10.0 mi WNW 4.6 mph - N/A   Clear
8:15 PM 9.5 °F 3.0 °F 3.2 °F 76% 30.35 in 10.0 mi WNW 3.5 mph - N/A   Clear
8:35 PM 9.3 °F 1.0 °F 3.7 °F 78% 30.35 in 10.0 mi NW 4.6 mph - N/A   Clear
8:55 PM 7.2 °F 0.3 °F 2.3 °F 80% 30.35 in 7.0 mi NW 3.5 mph - N/A   Clear
9:15 PM 7.5 °F 0.8 °F 2.5 °F 80% 30.36 in 10.0 mi West 3.5 mph - N/A   Clear
9:35 PM 6.3 °F - 1.9 °F 82% 30.36 in 7.0 mi North - - N/A   Clear
9:55 PM 6.8 °F - 2.3 °F 82% 30.37 in 7.0 mi North - - N/A   Clear
10:15 PM 5.9 °F - 1.8 °F 83% 30.38 in 7.0 mi North - - N/A   Clear
10:35 PM 4.8 °F - 0.5 °F 82% 30.37 in 7.0 mi North - - N/A   Clear
10:55 PM 5.2 °F -3.8 °F 1.6 °F 85% 30.37 in 7.0 mi NW 4.6 mph - N/A   Clear
11:15 PM 4.5 °F - 0.9 °F 85% 30.37 in 7.0 mi North - - N/A   Clear
11:35 PM 4.3 °F -4.9 °F 0.5 °F 84% 30.37 in 7.0 mi WNW 4.6 mph - N/A   Clear
11:55 PM 2.5 °F - -1.3 °F 84% 30.37 in 7.0 mi North - - N/A   Clear